EW9030 Weather Reports


Display with metric or nautical units.
time (UTC)temp
F
wind
direction
speed
MPH
gust
MPH
rain 1hr
in
rain 24hr
in
rain mn
in
humidity
%
barometer
mb
20210727084713 48 69 0.0 2.0 0.00 0.01 0.00 92 1029.4
20210727084216 48 69 0.0 2.0 0.00 0.01 0.00 92 1029.5
20210727083714 48 69 0.0 2.0 0.00 0.01 0.00 92 1029.5
20210727083215 48 69 0.0 1.0 0.00 0.01 0.00 92 1029.5
20210727082711 48 69 0.0 2.0 0.00 0.01 0.00 92 1029.5
20210727082208 48 69 0.0 2.0 0.00 0.01 0.00 92 1029.6
20210727081706 48 69 1.0 2.0 0.00 0.01 0.00 92 1029.6
20210727081208 48 69 1.0 2.0 0.00 0.01 0.00 91 1029.8
20210727080709 48 69 0.0 2.0 0.00 0.01 0.00 90 1029.6
20210727080208 49 69 0.0 0.0 0.00 0.01 0.00 90 1029.8
20210727075703 49 69 0.0 0.0 0.00 0.01 0.00 90 1029.8
20210727075203 49 69 0.0 0.0 0.00 0.01 0.00 90 1029.9
20210727074704 49 69 0.0 0.0 0.00 0.01 0.00 90 1029.8
20210727074205 49 69 0.0 0.0 0.00 0.01 0.00 90 1029.9
20210727073703 49 69 0.0 0.0 0.00 0.01 0.00 89 1029.9
20210727073205 49 69 0.0 1.0 0.00 0.01 0.00 89 1029.9
20210727072701 49 69 0.0 2.0 0.00 0.01 0.00 89 1029.9
20210727072203 49 69 0.0 2.0 0.00 0.01 0.00 89 1029.8
20210727071701 49 57 0.0 1.0 0.00 0.01 0.00 88 1029.9
20210727071201 50 57 0.0 1.0 0.00 0.01 0.00 88 1029.9
20210727070703 50 57 1.0 2.0 0.00 0.01 0.00 88 1030.0
20210727070157 50 57 1.0 2.0 0.00 0.01 0.00 88 1029.9
20210727065657 50 57 1.0 3.0 0.00 0.01 0.00 88 1029.9
20210727065159 50 57 1.0 3.0 0.00 0.01 0.00 88 1030.0
20210727064658 50 57 0.0 2.0 0.00 0.01 0.00 88 1030.0
20210727064158 50 57 0.0 2.0 0.00 0.01 0.00 88 1030.2
20210727063700 50 57 0.0 2.0 0.00 0.01 0.00 88 1030.2
20210727063155 51 57 1.0 2.0 0.00 0.01 0.00 88 1030.2
20210727062655 51 57 1.0 2.0 0.00 0.01 0.00 88 1030.2
20210727062153 51 57 0.0 2.0 0.00 0.01 0.00 88 1030.4
20210727061656 51 57 0.0 2.0 0.00 0.01 0.00 88 1030.4
20210727061154 51 57 0.0 2.0 0.00 0.01 0.00 87 1030.3
20210727060655 51 57 0.0 2.0 0.00 0.01 0.00 87 1030.3
20210727060154 51 57 0.0 3.0 0.00 0.01 0.00 87 1030.3
20210727055656 51 57 0.0 3.0 0.00 0.01 0.01 87 1030.3
20210727055155 52 66 0.0 3.0 0.00 0.01 0.01 86 1030.4
20210727054652 52 66 1.0 3.0 0.00 0.01 0.01 86 1030.4
20210727054148 52 66 1.0 3.0 0.00 0.01 0.01 86 1030.3
20210727053648 52 66 1.0 3.0 0.00 0.01 0.01 85 1030.3
20210727053147 53 44 2.0 4.0 0.00 0.01 0.01 85 1030.3
20210727052648 53 40 2.0 4.0 0.00 0.01 0.01 85 1030.3
20210727052148 53 23 1.0 3.0 0.00 0.01 0.01 85 1030.3
20210727051639 53 63 1.0 3.0 0.00 0.01 0.01 85 1030.3
20210727051139 53 63 1.0 3.0 0.00 0.01 0.01 84 1030.3
20210727050638 53 63 0.0 2.0 0.00 0.01 0.01 84 1030.2
20210727050135 53 63 1.0 2.0 0.00 0.01 0.01 83 1030.2
20210727045638 54 63 0.0 2.0 0.00 0.01 0.01 83 1030.2
20210727045134 54 67 0.0 0.0 0.00 0.01 0.01 82 1030.0
20210727044631 54 67 0.0 0.0 0.00 0.01 0.01 82 1030.0
20210727044131 54 67 0.0 0.0 0.00 0.01 0.01 81 1030.0
20210727043630 55 67 0.0 2.0 0.00 0.01 0.01 81 1030.0
20210727043129 55 67 0.0 2.0 0.00 0.01 0.01 82 1030.0
20210727042629 55 67 1.0 3.0 0.00 0.01 0.01 81 1030.0
20210727042126 55 67 1.0 3.0 0.00 0.01 0.01 81 1030.0
20210727041626 56 67 0.0 2.0 0.00 0.01 0.01 79 1030.2
20210727041126 56 67 1.0 3.0 0.00 0.01 0.01 79 1030.0
20210727040625 56 58 1.0 3.0 0.00 0.01 0.01 79 1029.8
20210727040124 56 58 1.0 3.0 0.00 0.01 0.01 77 1029.8
20210727035624 57 58 1.0 3.0 0.00 0.01 0.01 76 1029.6
20210727035121 57 63 1.0 2.0 0.00 0.01 0.01 76 1029.5
20210727034619 57 63 0.0 2.0 0.00 0.01 0.01 75 1029.5
20210727034117 58 63 0.0 3.0 0.00 0.01 0.01 74 1029.5
20210727033619 58 63 0.0 3.0 0.00 0.01 0.01 73 1029.4
20210727033117 58 63 0.0 2.0 0.00 0.01 0.01 73 1029.3
20210727032620 59 63 1.0 3.0 0.00 0.01 0.01 71 1029.3
20210727032113 59 63 1.0 3.0 0.00 0.01 0.01 71 1029.3
20210727031613 59 63 1.0 3.0 0.00 0.01 0.01 69 1029.1
20210727031110 60 63 1.0 3.0 0.00 0.01 0.01 68 1029.1
20210727030611 61 63 0.0 3.0 0.00 0.01 0.01 66 1029.1
20210727030112 61 63 1.0 3.0 0.00 0.01 0.01 65 1029.0
20210727025612 62 63 1.0 3.0 0.00 0.01 0.01 64 1028.9
20210727025106 62 46 0.0 2.0 0.00 0.01 0.01 61 1028.7
20210727024607 63 49 1.0 3.0 0.00 0.01 0.01 61 1028.9
20210727024107 63 49 1.0 3.0 0.00 0.01 0.01 61 1028.7
20210727023604 64 75 0.0 3.0 0.00 0.01 0.01 60 1028.7
20210727023107 65 293 0.0 2.0 0.00 0.01 0.01 54 1028.6
20210727022605 66 293 0.0 2.0 0.00 0.01 0.01 55 1028.6
20210727022057 66 225 0.0 3.0 0.00 0.01 0.01 53 1028.5
20210727021557 67 225 0.0 3.0 0.00 0.01 0.01 53 1028.3
20210727021054 67 59 0.0 1.0 0.00 0.01 0.01 50 1028.5
20210727020556 67 59 1.0 6.0 0.00 0.01 0.01 49 1028.3
20210727020054 67 59 2.0 6.0 0.00 0.01 0.01 49 1028.5
20210727015551 68 76 3.0 9.0 0.00 0.01 0.01 47 1028.3
20210727015050 68 84 3.0 9.0 0.00 0.01 0.01 46 1028.3
20210727014551 69 82 2.0 7.0 0.00 0.01 0.01 42 1028.2
20210727014048 69 85 1.0 4.0 0.00 0.01 0.01 35 1028.1
20210727013547 69 41 2.0 5.0 0.00 0.01 0.01 33 1028.1
20210727013052 70 41 2.0 5.0 0.00 0.01 0.01 33 1028.1
20210727012541 70 32 2.0 7.0 0.00 0.01 0.01 35 1028.1
20210727012040 70 9 3.0 7.0 0.00 0.01 0.01 34 1027.9
20210727011538 70 58 3.0 7.0 0.00 0.01 0.01 37 1027.9
20210727011038 71 76 3.0 9.0 0.00 0.01 0.01 37 1027.8
20210727010536 71 47 3.0 9.0 0.00 0.01 0.01 39 1027.8
20210727010039 71 121 3.0 8.0 0.00 0.01 0.01 39 1027.8
20210727005534 71 143 4.0 8.0 0.00 0.01 0.01 39 1027.7
20210727005034 72 71 4.0 8.0 0.00 0.01 0.01 39 1027.8
20210727004542 72 84 3.0 11.0 0.00 0.01 0.01 38 1027.7
20210727004034 73 72 4.0 11.0 0.00 0.01 0.01 34 1027.7
20210727003537 73 5 5.0 11.0 0.00 0.01 0.01 34 1027.7
20210727003031 73 72 5.0 13.0 0.00 0.01 0.01 27 1027.7
20210727002531 73 91 4.0 14.0 0.00 0.02 0.01 28 1027.7
20210727002031 73 73 4.0 14.0 0.00 0.02 0.01 36 1027.7
20210727001528 73 83 6.0 14.0 0.00 0.02 0.01 33 1027.7
20210727001027 73 80 7.0 14.0 0.00 0.02 0.01 28 1027.7
20210727000528 74 62 6.0 11.0 0.00 0.03 0.01 29 1027.5
20210727000026 74 105 5.0 13.0 0.00 0.03 0.01 28 1027.5
20210726235525 74 64 5.0 13.0 0.00 0.04 0.01 27 1027.5
20210726235025 74 55 6.0 18.0 0.00 0.04 0.01 27 1027.5
20210726234523 74 55 6.0 18.0 0.00 0.05 0.01 28 1027.5
20210726234024 74 67 8.0 18.0 0.00 0.06 0.01 29 1027.5
20210726233525 74 82 8.0 18.0 0.00 0.16 0.01 29 1027.5
20210726233018 75 9 7.0 17.0 0.00 0.22 0.01 26 1027.4
20210726232520 75 63 6.0 13.0 0.00 0.25 0.01 27 1027.4
20210726232023 75 68 5.0 12.0 0.00 0.27 0.01 27 1027.4
20210726231519 75 50 5.0 12.0 0.00 0.33 0.01 29 1027.4
20210726231019 75 134 6.0 14.0 0.00 0.39 0.01 28 1027.4
20210726230520 75 74 6.0 14.0 0.00 0.43 0.01 29 1027.5
20210726230024 75 96 6.0 16.0 0.00 0.44 0.01 29 1027.4
20210726225520 75 86 6.0 16.0 0.00 0.44 0.01 31 1027.4
20210726225021 75 5 6.0 13.0 0.00 0.46 0.01 30 1027.4
20210726224519 75 76 8.0 14.0 0.00 0.48 0.01 30 1027.4
20210726224018 76 63 7.0 14.0 0.00 0.50 0.01 32 1027.5
20210726223521 76 163 7.0 18.0 0.00 0.51 0.01 31 1027.4
20210726223015 76 98 7.0 18.0 0.00 0.53 0.01 27 1027.5
20210726222511 77 22 6.0 12.0 0.00 0.61 0.01 27 1027.5
20210726222012 76 70 5.0 11.0 0.00 0.67 0.01 30 1027.5
20210726221510 76 82 7.0 13.0 0.00 0.69 0.01 28 1027.5
20210726221008 76 102 7.0 13.0 0.00 0.71 0.01 26 1027.7
20210726220508 76 84 7.0 13.0 0.00 0.71 0.01 26 1027.8
20210726220011 77 82 5.0 13.0 0.00 0.71 0.01 26 1027.8
20210726215506 77 126 3.0 9.0 0.00 0.71 0.01 32 1027.7
20210726215006 77 78 4.0 14.0 0.00 0.71 0.01 24 1027.7
20210726214507 76 32 4.0 14.0 0.00 0.71 0.01 32 1027.8
20210726214008 76 0 7.0 15.0 0.00 0.71 0.01 31 1027.8
20210726213507 76 79 6.0 15.0 0.00 0.71 0.01 29 1027.9
20210726213009 77 107 4.0 14.0 0.00 0.71 0.01 28 1027.8
20210726212506 76 5 5.0 14.0 0.00 0.71 0.01 27 1027.9
20210726212003 76 107 6.0 14.0 0.00 0.71 0.01 28 1027.9
20210726211502 76 90 7.0 13.0 0.00 0.71 0.01 29 1027.8
20210726211002 76 93 6.0 12.0 0.00 0.71 0.01 28 1027.8
20210726210501 76 53 5.0 13.0 0.00 0.71 0.01 25 1028.1
20210726210002 76 72 5.0 13.0 0.00 0.71 0.01 25 1028.1
20210726205503 76 331 6.0 16.0 0.00 0.71 0.01 32 1027.9
20210726205000 76 71 6.0 16.0 0.00 0.71 0.01 24 1028.1
20210726204458 77 84 5.0 11.0 0.00 0.71 0.01 27 1028.1
20210726203956 77 59 4.0 10.0 0.00 0.71 0.01 28 1028.1
20210726203458 77 115 5.0 13.0 0.00 0.71 0.01 28 1028.2
20210726202958 76 164 7.0 18.0 0.00 0.71 0.01 29 1028.2
20210726202456 77 89 4.0 18.0 0.00 0.71 0.01 27 1028.2
20210726201953 77 76 4.0 13.0 0.00 0.71 0.01 29 1028.2
20210726201447 76 5 4.0 13.0 0.00 0.71 0.01 28 1028.2
20210726200948 76 22 5.0 14.0 0.00 0.71 0.01 31 1028.2
20210726200449 76 80 6.0 14.0 0.00 0.71 0.01 31 1028.2
20210726195948 76 118 6.0 11.0 0.00 0.71 0.01 31 1028.2
20210726195448 76 61 6.0 12.0 0.00 0.71 0.01 25 1028.2
20210726194950 76 346 5.0 12.0 0.00 0.71 0.01 25 1028.2
20210726194441 76 94 5.0 12.0 0.00 0.71 0.01 28 1028.3
20210726193942 76 24 5.0 15.0 0.00 0.71 0.01 28 1028.2
20210726193442 76 301 4.0 15.0 0.00 0.71 0.01 27 1028.3
20210726192942 76 17 4.0 11.0 0.00 0.71 0.01 33 1028.2
20210726192442 75 82 7.0 15.0 0.00 0.71 0.01 27 1028.2
20210726191943 75 50 6.0 15.0 0.00 0.71 0.01 29 1028.3
20210726191438 75 98 4.0 15.0 0.00 0.71 0.01 28 1028.2
20210726190937 75 46 4.0 14.0 0.00 0.71 0.01 30 1028.2
20210726190440 75 338 5.0 14.0 0.00 0.71 0.01 33 1028.1
20210726185939 75 69 5.0 14.0 0.00 0.71 0.01 32 1028.1
20210726185437 76 40 4.0 14.0 0.00 0.71 0.01 34 1028.1
20210726184935 75 82 5.0 12.0 0.00 0.71 0.01 31 1028.1
20210726184432 75 57 5.0 11.0 0.00 0.71 0.01 38 1028.1
20210726183930 75 78 5.0 12.0 0.00 0.71 0.01 37 1028.1
20210726183430 74 91 6.0 13.0 0.00 0.71 0.01 36 1028.2
20210726182930 74 19 5.0 13.0 0.00 0.71 0.01 38 1028.2
20210726182430 74 90 5.0 14.0 0.00 0.71 0.01 34 1028.2
20210726181936 74 67 7.0 14.0 0.00 0.71 0.01 35 1028.3
20210726181424 74 82 6.0 12.0 0.00 0.71 0.01 37 1028.3
20210726180926 74 92 4.0 12.0 0.00 0.71 0.01 35 1028.3
20210726180425 75 55 2.0 7.0 0.00 0.71 0.01 39 1028.3
20210726175924 74 65 3.0 9.0 0.00 0.71 0.01 38 1028.3
20210726175424 74 121 2.0 9.0 0.00 0.71 0.01 34 1028.2
20210726174926 74 85 3.0 8.0 0.00 0.71 0.01 36 1028.3
20210726174418 74 148 4.0 8.0 0.00 0.71 0.01 36 1028.3
20210726173919 74 123 3.0 8.0 0.00 0.71 0.01 43 1028.3
20210726173417 74 87 2.0 8.0 0.00 0.71 0.01 48 1028.5
20210726172919 73 98 3.0 7.0 0.00 0.71 0.01 44 1028.5
20210726172415 73 186 2.0 7.0 0.00 0.71 0.01 46 1028.3
20210726171918 72 127 2.0 7.0 0.00 0.71 0.01 46 1028.3
20210726171409 72 70 2.0 6.0 0.00 0.71 0.01 42 1028.5
20210726170910 71 237 2.0 6.0 0.00 0.71 0.01 46 1028.6
20210726170409 71 315 2.0 6.0 0.00 0.71 0.01 46 1028.6
20210726165908 71 274 1.0 5.0 0.00 0.71 0.01 45 1028.6
20210726165410 71 225 1.0 4.0 0.00 0.71 0.01 48 1028.6
20210726164910 70 171 2.0 4.0 0.00 0.71 0.01 49 1028.7
20210726164411 70 152 2.0 4.0 0.00 0.71 0.01 48 1028.6
20210726163903 69 136 3.0 6.0 0.00 0.71 0.01 50 1028.6
20210726163401 69 128 3.0 6.0 0.00 0.71 0.01 57 1028.6
20210726162900 68 108 2.0 6.0 0.00 0.71 0.01 54 1028.6
20210726162400 67 192 2.0 6.0 0.00 0.71 0.01 62 1028.6
20210726161900 67 140 2.0 6.0 0.00 0.71 0.01 64 1028.5
20210726161401 67 159 2.0 6.0 0.00 0.71 0.01 66 1028.6
20210726160858 66 145 2.0 6.0 0.00 0.71 0.01 63 1028.5
20210726160356 65 184 1.0 4.0 0.00 0.71 0.01 66 1028.5
20210726155859 65 225 1.0 3.0 0.00 0.71 0.01 69 1028.5
20210726155356 64 166 1.0 3.0 0.00 0.71 0.01 66 1028.5
20210726154858 63 166 1.0 3.0 0.00 0.71 0.01 69 1028.6
20210726154359 63 166 1.0 3.0 0.00 0.71 0.01 71 1028.5
20210726153859 62 166 1.0 3.0 0.00 0.71 0.01 73 1028.5
20210726153354 61 166 0.0 3.0 0.00 0.71 0.01 73 1028.5
20210726152856 61 166 1.0 4.0 0.00 0.71 0.01 73 1028.5
20210726152350 60 166 1.0 4.0 0.00 0.71 0.01 74 1028.6
20210726151850 59 171 2.0 4.0 0.00 0.71 0.01 79 1028.6
20210726151350 58 199 2.0 5.0 0.00 0.71 0.01 78 1028.6
20210726150850 58 207 3.0 5.0 0.00 0.71 0.01 79 1028.5
20210726150351 57 206 3.0 5.0 0.00 0.71 0.01 81 1028.5
20210726145852 57 195 3.0 5.0 0.00 0.71 0.01 81 1028.6
20210726145347 56 208 3.0 5.0 0.00 0.71 0.01 81 1028.5
20210726144848 56 199 3.0 5.0 0.00 0.71 0.01 84 1028.5
20210726144347 56 211 3.0 5.0 0.00 0.71 0.01 84 1028.5
20210726143847 55 195 3.0 5.0 0.00 0.71 0.01 84 1028.5
20210726143346 55 202 3.0 5.0 0.00 0.71 0.01 86 1028.5
20210726142847 54 190 3.0 5.0 0.00 0.71 0.01 88 1028.5
20210726142342 54 205 3.0 5.0 0.00 0.71 0.01 92 1028.5
20210726141842 53 198 3.0 4.0 0.00 0.71 0.01 93 1028.3
20210726141342 52 194 3.0 4.0 0.00 0.71 0.01 96 1028.3
20210726140843 52 192 2.0 4.0 0.00 0.71 0.01 97 1028.3
20210726140344 52 211 2.0 3.0 0.00 0.71 0.01 97 1028.2
20210726135844 51 215 1.0 3.0 0.00 0.71 0.01 97 1028.2
20210726135344 51 209 1.0 3.0 0.00 0.71 0.01 97 1028.1
20210726134844 51 148 0.0 2.0 0.00 0.71 0.01 97 1027.9
20210726134341 50 55 0.0 1.0 0.00 0.71 0.01 97 1027.9
20210726133839 50 55 0.0 1.0 0.00 0.71 0.01 97 1028.1
20210726133341 49 55 0.0 1.0 0.00 0.71 0.01 97 1028.1
20210726132841 49 55 1.0 2.0 0.01 0.71 0.01 96 1028.1
20210726132336 48 55 1.0 2.0 0.01 0.71 0.01 97 1028.1
20210726131833 48 55 0.0 2.0 0.01 0.71 0.01 97 1027.9
20210726131332 47 55 0.0 0.0 0.01 0.71 0.01 96 1027.9
20210726130832 47 55 0.0 0.0 0.01 0.71 0.01 96 1027.9
20210726130334 46 55 0.0 1.0 0.01 0.71 0.01 96 1027.9
20210726125834 46 55 0.0 1.0 0.01 0.71 0.01 96 1027.9
20210726125328 45 55 0.0 0.0 0.01 0.71 0.01 96 1027.9
20210726124826 45 55 0.0 0.0 0.01 0.71 0.01 96 1027.9
20210726124323 45 55 0.0 0.0 0.01 0.71 0.01 96 1027.9
20210726123824 44 55 0.0 1.0 0.01 0.71 0.01 96 1027.9
20210726123320 44 55 0.0 1.0 0.01 0.71 0.01 96 1027.8
20210726122819 44 55 0.0 2.0 0.00 0.70 0.00 96 1027.9
20210726122317 44 55 0.0 2.0 0.00 0.70 0.00 96 1027.8
20210726121817 44 55 0.0 1.0 0.00 0.70 0.00 96 1027.9
20210726121317 44 55 1.0 2.0 0.00 0.70 0.00 95 1027.8
20210726120815 44 55 0.0 2.0 0.00 0.70 0.00 95 1027.8
20210726120628 44 55 0.0 2.0 0.00 0.70 0.00 95 1027.8
20210726115807 45 55 0.0 2.0 0.00 0.70 0.00 95 1027.9
20210726115305 45 55 0.0 2.0 0.00 0.70 0.00 96 1027.8
20210726114804 45 55 0.0 0.0 0.00 0.70 0.00 96 1027.8
20210726114303 45 55 0.0 0.0 0.00 0.70 0.00 96 1027.9
20210726113806 45 55 0.0 2.0 0.00 0.70 0.00 95 1027.8
20210726113306 45 55 0.0 2.0 0.00 0.70 0.00 95 1027.8
20210726112802 45 55 0.0 2.0 0.00 0.70 0.00 95 1027.8
20210726112301 45 55 1.0 2.0 0.00 0.70 0.00 95 1027.8
20210726111802 45 55 1.0 3.0 0.00 0.70 0.00 95 1027.9
20210726111301 45 55 1.0 3.0 0.00 0.70 0.00 95 1027.9
20210726110800 46 55 0.0 2.0 0.00 0.70 0.00 95 1027.8
20210726110259 46 55 0.0 2.0 0.00 0.70 0.00 95 1027.9
20210726105753 46 55 0.0 2.0 0.00 0.70 0.00 95 1027.9
20210726105251 45 55 0.0 1.0 0.00 0.70 0.00 95 1027.9
20210726104749 45 73 0.0 1.0 0.00 0.70 0.00 95 1027.9
20210726104248 45 73 0.0 1.0 0.00 0.70 0.00 95 1027.9
20210726103746 45 73 0.0 2.0 0.00 0.70 0.00 95 1027.9
20210726103243 46 73 1.0 2.0 0.00 0.70 0.00 95 1027.9
20210726102750 46 73 0.0 2.0 0.00 0.70 0.00 95 1027.9
20210726102239 46 73 0.0 2.0 0.00 0.70 0.00 95 1027.9
20210726101737 45 73 1.0 2.0 0.00 0.70 0.00 94 1028.1
20210726101240 46 73 1.0 3.0 0.00 0.70 0.00 94 1028.1
20210726100729 46 73 1.0 3.0 0.00 0.70 0.00 94 1028.2
20210726100227 46 73 1.0 3.0 0.00 0.70 0.00 94 1028.1
20210726095725 46 74 1.0 3.0 0.00 0.70 0.00 94 1028.1
20210726095227 46 55 0.0 1.0 0.00 0.70 0.00 94 1028.1
20210726094722 46 55 0.0 2.0 0.00 0.70 0.00 94 1028.2
20210726094221 46 60 1.0 2.0 0.00 0.70 0.00 94 1028.2
20210726093719 47 60 0.0 2.0 0.00 0.70 0.00 94 1028.1
20210726093215 47 38 1.0 2.0 0.00 0.70 0.00 94 1028.1
20210726092717 47 55 1.0 3.0 0.00 0.70 0.00 94 1028.2
20210726092216 47 5 1.0 3.0 0.00 0.70 0.00 94 1028.1
20210726091719 47 5 1.0 3.0 0.00 0.70 0.00 94 1028.1
20210726091215 47 47 1.0 3.0 0.00 0.70 0.00 94 1028.1
20210726090714 48 18 0.0 2.0 0.00 0.70 0.00 94 1028.2
20210726090212 48 18 0.0 2.0 0.00 0.70 0.00 93 1028.2
20210726085711 48 18 0.0 2.0 0.00 0.70 0.00 93 1028.3
20210726085209 48 355 0.0 2.0 0.00 0.70 0.00 93 1028.3